User: anonymous   Login
Location: Unspecified
(0.0000°N, 0.0000°E)
Time: 01:10:43
(UTC+00:00)
Language:

STARLINK-30120 - Orbit

View from above orbital plane
View from above orbital plane
View from above satellite
View from above satellite

Ground track
Ground track

The orbit is defined by the following mean orbital elements,

1 56824U          26145.38949714 +.00000000 +00000-0 -66900-4 0 00007
2 56824  43.0065  34.3130 0001193 280.8960  79.1757 15.27567990    03
Epoch (UTC): 25 May 2026 09:20:52
Eccentricity: 0.0001193
inclination: 43.0065°
perigee height: 482 km
apogee height: 484 km
right ascension of ascending node: 34.3130°
argument of perigee: 280.8960°
revolutions per day: 15.27567990
mean anomaly at epoch: 79.1757°

The dashed part of the orbit path shows where the satellite is in the earth's shadow,  

DLR